sat.trackr.live / text

‹ back to catalog

TURKMENALEM52E/MONACOSAT

NORAD 40617 · 2015-023A

PAYLOAD ACTIVE UNKNOWN

§ Identity

Operator
Country
TMMC
Launch date
2015-04-27
Launch site
AFETR
Launch vehicle
Mass (kg)
RCS (m²)
8.94

Purposes: comms

External: N2YO · Heavens-Above · Gunter

§ Orbital elements

Epoch: 2026-09-20T01:46:23.179296Z

Period
1,436.11 min
Inclination
0.0118°
Eccentricity
0.0003029
Mean motion
1.00270744 rev/d
Perigee alt
35,774.1 km
Apogee alt
35,799.7 km
Semi-major
42,165.0 km
B*
0.0000e+0
RAAN
121.4167°
Arg perigee
51.3804°
Mean anomaly
264.8122°
Rev number
4,179

§ Raw data

TURKMENALEM52E/MONACOSAT1 40617U 15023A   26263.07387939  .00000100  00000+0  00000+0 0  99932 40617   0.0118 121.4167 0003029  51.3804 264.8122  1.00270744 41798

JSON: /api/v1/satellites/40617 · /tle

For live sub-satellite position, see the globe view (requires WebGL).

§ Visibility from observer

Set your observer location to see the next 7 days of passes ≥ 10°. The values pass through the URL so the page stays shareable.

No JS? Fill the form by hand. The geolocation button needs JavaScript.